| time (UTC) | temp F | wind direction | speed knots | gust knots | rain 1hr in | rain 24hr in | rain mn in | humidity % | barometer mb |
| 20260504110703 | 71 | 340 | 1.7 | 10.4 | 0.06 | 0.10 | 0.10 | 89 | 1004.7 |
| 20260504081704 | 79 | 350 | 3.5 | 9.6 | 0.00 | 0.00 | 0.00 | 54 | 1002.7 |
| 20260504080703 | 79 | 330 | 2.6 | 11.3 | 0.00 | 0.00 | 0.00 | 53 | 1002.6 |
| 20260504050704 | 82 | 320 | 4.3 | 15.6 | 0.00 | 0.00 | 0.00 | 51 | 1003.4 |
| 20260504045704 | 82 | 340 | 3.5 | 15.6 | 0.00 | 0.00 | 0.00 | 52 | 1003.5 |
| 20260504044704 | 82 | 350 | 4.3 | 15.6 | 0.00 | 0.00 | 0.00 | 52 | 1003.6 |
| 20260504043704 | 82 | 0 | 4.3 | 15.6 | 0.00 | 0.00 | 0.00 | 51 | 1003.5 |
| 20260504042704 | 81 | 0 | 7.0 | 15.6 | 0.00 | 0.00 | 0.00 | 55 | 1003.7 |
| 20260504041703 | 81 | 350 | 3.5 | 15.6 | 0.00 | 0.00 | 0.00 | 55 | 1003.7 |
| 20260504040703 | 80 | 350 | 6.1 | 15.6 | 0.00 | 0.00 | 0.00 | 54 | 1003.7 |
| 20260504035703 | 80 | 350 | 7.0 | 15.6 | 0.00 | 0.00 | 0.00 | 60 | 1003.9 |
| 20260504034704 | 79 | 350 | 7.0 | 15.6 | 0.00 | 0.00 | 0.00 | 59 | 1004.1 |
| 20260504033703 | 79 | 10 | 6.1 | 15.6 | 0.00 | 0.00 | 0.00 | 60 | 1004.0 |
| 20260504032704 | 78 | 10 | 6.1 | 15.6 | 0.00 | 0.00 | 0.00 | 60 | 1003.9 |
| 20260504031704 | 77 | 0 | 5.2 | 15.6 | 0.00 | 0.00 | 0.00 | 62 | 1004.2 |
| 20260504030703 | 77 | 10 | 5.2 | 19.1 | 0.00 | 0.00 | 0.00 | 63 | 1004.3 |
| 20260504025703 | 76 | 0 | 5.2 | 19.1 | 0.00 | 0.00 | 0.00 | 65 | 1004.2 |
| 20260504024703 | 76 | 0 | 5.2 | 19.1 | 0.00 | 0.00 | 0.00 | 65 | 1004.0 |
| 20260504023704 | 75 | 350 | 7.0 | 19.1 | 0.00 | 0.00 | 0.00 | 66 | 1003.8 |
| 20260504022704 | 76 | 0 | 5.2 | 19.1 | 0.00 | 0.00 | 0.00 | 65 | 1003.7 |
| 20260504021703 | 76 | 10 | 9.6 | 19.1 | 0.00 | 0.00 | 0.00 | 65 | 1003.7 |
| 20260504020704 | 77 | 0 | 7.8 | 14.8 | 0.00 | 0.00 | 0.00 | 64 | 1003.9 |
| 20260504015703 | 79 | 10 | 5.2 | 14.8 | 0.00 | 0.00 | 0.00 | 62 | 1003.8 |
| 20260504014703 | 78 | 0 | 6.1 | 14.8 | 0.00 | 0.00 | 0.00 | 63 | 1004.1 |
| 20260504013704 | 78 | 340 | 7.8 | 14.8 | 0.00 | 0.00 | 0.00 | 63 | 1004.0 |
| 20260504012704 | 79 | 350 | 6.1 | 14.8 | 0.00 | 0.00 | 0.00 | 61 | 1004.1 |
| 20260504011703 | 78 | 10 | 8.7 | 14.8 | 0.00 | 0.00 | 0.00 | 63 | 1004.1 |
| 20260504010704 | 78 | 10 | 6.1 | 11.3 | 0.00 | 0.00 | 0.00 | 63 | 1004.0 |
| 20260504005704 | 78 | 10 | 7.8 | 11.3 | 0.00 | 0.00 | 0.00 | 64 | 1003.8 |
| 20260504004704 | 78 | 10 | 5.2 | 11.3 | 0.00 | 0.00 | 0.00 | 64 | 1003.7 |
| 20260504003704 | 78 | 340 | 5.2 | 11.3 | 0.00 | 0.00 | 0.00 | 65 | 1003.7 |
| 20260504002703 | 78 | 350 | 4.3 | 11.3 | 0.00 | 0.00 | 0.00 | 67 | 1003.5 |
| 20260504001703 | 77 | 320 | 3.5 | 11.3 | 0.00 | 0.00 | 0.00 | 68 | 1003.5 |
| 20260504000703 | 77 | 0 | 4.3 | 8.7 | 0.00 | 0.00 | 0.00 | 68 | 1003.3 |
| 20260503235704 | 77 | 350 | 5.2 | 8.7 | 0.00 | 0.00 | 0.00 | 70 | 1003.6 |
| 20260503234703 | 76 | 0 | 3.5 | 8.7 | 0.00 | 0.00 | 0.00 | 71 | 1003.5 |
| 20260503233704 | 76 | 340 | 5.2 | 8.7 | 0.00 | 0.00 | 0.00 | 72 | 1003.8 |
| 20260503232704 | 76 | 340 | 3.5 | 8.7 | 0.00 | 0.00 | 0.00 | 73 | 1003.8 |
| 20260503231703 | 76 | 330 | 2.6 | 8.7 | 0.00 | 0.00 | 0.00 | 74 | 1003.7 |
| 20260503230703 | 76 | 330 | 2.6 | 7.8 | 0.00 | 0.00 | 0.00 | 74 | 1003.5 |
| 20260503225704 | 77 | 310 | 1.7 | 7.8 | 0.00 | 0.00 | 0.00 | 74 | 1003.3 |
| 20260503224703 | 76 | 0 | 1.7 | 7.8 | 0.00 | 0.00 | 0.00 | 75 | 1003.2 |
| 20260503223703 | 76 | 350 | 1.7 | 7.8 | 0.00 | 0.00 | 0.00 | 75 | 1003.3 |
| 20260503222703 | 76 | 330 | 1.7 | 7.8 | 0.00 | 0.00 | 0.00 | 75 | 1003.3 |
| 20260503221704 | 76 | 0 | 3.5 | 7.8 | 0.00 | 0.00 | 0.00 | 76 | 1003.3 |
| 20260503220711 | 76 | 350 | 4.3 | 11.3 | 0.00 | 0.00 | 0.00 | 76 | 1003.4 |
| 20260503215703 | 75 | 10 | 3.5 | 11.3 | 0.00 | 0.00 | 0.00 | 76 | 1003.2 |
| 20260503214703 | 75 | 0 | 3.5 | 11.3 | 0.00 | 0.00 | 0.00 | 76 | 1003.3 |
| 20260503213704 | 75 | 0 | 2.6 | 11.3 | 0.00 | 0.00 | 0.00 | 76 | 1003.1 |
| 20260503212704 | 75 | 10 | 3.5 | 11.3 | 0.00 | 0.00 | 0.00 | 76 | 1003.1 |
| 20260503211703 | 75 | 0 | 3.5 | 11.3 | 0.00 | 0.00 | 0.00 | 76 | 1003.2 |
| 20260503210704 | 75 | 350 | 3.5 | 9.6 | 0.00 | 0.00 | 0.00 | 76 | 1003.2 |
| 20260503205704 | 75 | 0 | 3.5 | 9.6 | 0.00 | 0.00 | 0.00 | 76 | 1003.1 |
| 20260503204703 | 76 | 350 | 3.5 | 9.6 | 0.00 | 0.00 | 0.00 | 77 | 1003.0 |
| 20260503203703 | 76 | 0 | 4.3 | 9.6 | 0.00 | 0.00 | 0.00 | 79 | 1002.9 |
| 20260503202703 | 76 | 340 | 3.5 | 9.6 | 0.00 | 0.00 | 0.00 | 79 | 1002.9 |
| 20260503201704 | 77 | 350 | 3.5 | 9.6 | 0.00 | 0.00 | 0.00 | 80 | 1002.7 |
| 20260503200703 | 77 | 0 | 3.5 | 8.7 | 0.00 | 0.00 | 0.00 | 80 | 1002.4 |
| 20260503195703 | 78 | 0 | 4.3 | 8.7 | 0.00 | 0.00 | 0.00 | 80 | 1002.3 |
| 20260503194703 | 78 | 350 | 4.3 | 8.7 | 0.00 | 0.00 | 0.00 | 81 | 1002.3 |
| 20260503193703 | 78 | 0 | 2.6 | 8.7 | 0.00 | 0.00 | 0.00 | 81 | 1002.3 |
| 20260503192703 | 78 | 350 | 3.5 | 8.7 | 0.00 | 0.00 | 0.00 | 81 | 1002.3 |
| 20260503191703 | 78 | 350 | 3.5 | 8.7 | 0.00 | 0.00 | 0.00 | 80 | 1002.2 |
| 20260503190703 | 78 | 0 | 3.5 | 8.7 | 0.00 | 0.00 | 0.00 | 80 | 1002.3 |
| 20260503185703 | 78 | 0 | 3.5 | 8.7 | 0.00 | 0.00 | 0.00 | 80 | 1002.3 |
| 20260503184704 | 78 | 0 | 2.6 | 8.7 | 0.00 | 0.00 | 0.00 | 80 | 1002.3 |
| 20260503183703 | 78 | 330 | 2.6 | 8.7 | 0.00 | 0.00 | 0.00 | 80 | 1002.5 |
| 20260503182704 | 78 | 330 | 2.6 | 8.7 | 0.00 | 0.00 | 0.00 | 80 | 1002.4 |
| 20260503181703 | 78 | 0 | 2.6 | 8.7 | 0.00 | 0.00 | 0.00 | 80 | 1002.3 |
| 20260503180703 | 78 | 0 | 3.5 | 11.3 | 0.00 | 0.00 | 0.00 | 81 | 1002.3 |
| 20260503175704 | 78 | 0 | 2.6 | 11.3 | 0.00 | 0.00 | 0.00 | 82 | 1002.4 |
| 20260503174703 | 78 | 350 | 2.6 | 11.3 | 0.00 | 0.00 | 0.00 | 82 | 1002.5 |
| 20260503173703 | 78 | 10 | 3.5 | 11.3 | 0.00 | 0.00 | 0.00 | 83 | 1002.4 |
| 20260503172707 | 78 | 350 | 3.5 | 11.3 | 0.00 | 0.00 | 0.00 | 83 | 1002.5 |
| 20260503171704 | 78 | 340 | 3.5 | 11.3 | 0.00 | 0.00 | 0.00 | 82 | 1002.7 |
| 20260503170704 | 78 | 350 | 3.5 | 12.2 | 0.00 | 0.00 | 0.00 | 81 | 1002.6 |
| 20260503150703 | 80 | 0 | 3.5 | 7.8 | 0.00 | 0.00 | 0.00 | 84 | 1002.7 |
| 20260503130704 | 83 | 330 | 0.9 | 6.1 | 0.00 | 0.00 | 0.00 | 77 | 1001.3 |